owner,sensor,date,latitude,longitude,vertical_datum,direction_of_sea_water_velocity,sea_water_speed,upward_sea_water_velocity,qcFlag 
TABS,ioos:station:wmo:42043:1,2013-07-01T00:00:00Z,28.9818,-94.9186,2.0,70.66025076,30.43755575,-99999.0,'11111222,11111222,99999999' 
TABS,ioos:station:wmo:42043:1,2013-07-01T00:30:00Z,28.9818,-94.9186,2.0,72.65485752,30.92634476,-99999.0,'11111222,11111222,99999999' 
TABS,ioos:station:wmo:42043:1,2013-07-01T01:00:00Z,28.9818,-94.9186,2.0,73.20660168,31.46176251,-99999.0,'11111222,11111222,99999999' 
TABS,ioos:station:wmo:42043:1,2013-07-01T01:30:00Z,28.9818,-94.9186,2.0,68.49338533,27.795246,-99999.0,'11111222,11111222,99999999' 
TABS,ioos:station:wmo:42043:1,2013-07-01T02:00:00Z,28.9818,-94.9186,2.0,64.522152,28.75653839,-99999.0,'11111222,11111222,99999999' 
TABS,ioos:station:wmo:42043:1,2013-07-01T02:30:00Z,28.9818,-94.9186,2.0,60.10254761,27.00369789,-99999.0,'11111222,11111222,99999999' 
TABS,ioos:station:wmo:42043:1,2013-07-01T03:00:00Z,28.9818,-94.9186,2.0,58.2133411,26.38777937,-99999.0,'11111222,11111222,99999999' 
TABS,ioos:station:wmo:42043:1,2013-07-01T03:30:00Z,28.9818,-94.9186,2.0,61.06458144,24.761044,-99999.0,'11111222,11111222,99999999' 
TABS,ioos:station:wmo:42043:1,2013-07-01T04:00:00Z,28.9818,-94.9186,2.0,70.67324991,27.2241841,-99999.0,'11111222,11111222,99999999' 
TABS,ioos:station:wmo:42043:1,2013-07-01T04:30:00Z,28.9818,-94.9186,2.0,68.982188,25.12135745,-99999.0,'11111222,11111222,99999999' 
TABS,ioos:station:wmo:42043:1,2013-07-01T05:00:00Z,28.9818,-94.9186,2.0,72.04823064,25.50151368,-99999.0,'11111222,11111222,99999999' 
TABS,ioos:station:wmo:42043:1,2013-07-01T05:30:00Z,28.9818,-94.9186,2.0,79.43672129,24.98339449,-99999.0,'11111222,11111222,99999999' 
TABS,ioos:station:wmo:42043:1,2013-07-01T06:00:00Z,28.9818,-94.9186,2.0,76.58767372,21.38320837,-99999.0,'11111222,11111222,99999999' 
TABS,ioos:station:wmo:42043:1,2013-07-01T06:30:00Z,28.9818,-94.9186,2.0,90.55805682,21.5610227,-99999.0,'11111222,11111222,99999999' 
TABS,ioos:station:wmo:42043:1,2013-07-01T07:00:00Z,28.9818,-94.9186,2.0,99.3099184,17.92612897,-99999.0,'11111222,11111222,99999999' 
TABS,ioos:station:wmo:42043:1,2013-07-01T07:30:00Z,28.9818,-94.9186,2.0,130.8954372,12.25022449,-99999.0,'11111222,11111222,99999999' 
TABS,ioos:station:wmo:42043:1,2013-07-01T08:00:00Z,28.9818,-94.9186,2.0,142.1390637,10.63959116,-99999.0,'11111222,11111222,99999999' 
TABS,ioos:station:wmo:42043:1,2013-07-01T08:30:00Z,28.9818,-94.9186,2.0,162.2962779,7.431958019,-99999.0,'11133222,11111222,99999999' 
TABS,ioos:station:wmo:42043:1,2013-07-01T09:00:00Z,28.9818,-94.9186,2.0,181.6098378,9.253653333,-99999.0,'11133222,11111222,99999999' 
TABS,ioos:station:wmo:42043:1,2013-07-01T09:30:00Z,28.9818,-94.9186,2.0,184.6425912,6.300674567,-99999.0,'11133222,11111222,99999999' 
TABS,ioos:station:wmo:42043:1,2013-07-01T10:00:00Z,28.9818,-94.9186,2.0,205.4266043,4.727980541,-99999.0,'11133222,11111222,99999999' 
TABS,ioos:station:wmo:42043:1,2013-07-01T10:30:00Z,28.9818,-94.9186,2.0,210.4755663,2.819538969,-99999.0,'11133222,11111222,99999999' 
TABS,ioos:station:wmo:42043:1,2013-07-01T11:00:00Z,28.9818,-94.9186,2.0,208.1783138,1.588238017,-99999.0,'11133222,11111222,99999999' 
TABS,ioos:station:wmo:42043:1,2013-07-01T11:30:00Z,28.9818,-94.9186,2.0,266.9262538,2.984292211,-99999.0,'11133222,11111222,99999999' 
TABS,ioos:station:wmo:42043:1,2013-07-01T12:00:00Z,28.9818,-94.9186,2.0,273.131635,4.576832966,-99999.0,'11133222,11111222,99999999' 
TABS,ioos:station:wmo:42043:1,2013-07-01T12:30:00Z,28.9818,-94.9186,2.0,271.7499432,7.533511797,-99999.0,'11133222,11111222,99999999' 
TABS,ioos:station:wmo:42043:1,2013-07-01T13:00:00Z,28.9818,-94.9186,2.0,286.9391388,8.477794525,-99999.0,'11133222,11111222,99999999' 
TABS,ioos:station:wmo:42043:1,2013-07-01T13:30:00Z,28.9818,-94.9186,2.0,283.9577663,10.57213791,-99999.0,'11111222,11111222,99999999' 
TABS,ioos:station:wmo:42043:1,2013-07-01T14:00:00Z,28.9818,-94.9186,2.0,292.2462458,7.660163184,-99999.0,'11133222,11111222,99999999' 
TABS,ioos:station:wmo:42043:1,2013-07-01T14:30:00Z,28.9818,-94.9186,2.0,279.0821716,10.6434252,-99999.0,'11111222,11111222,99999999' 
TABS,ioos:station:wmo:42043:1,2013-07-01T15:00:00Z,28.9818,-94.9186,2.0,283.0024396,11.55627968,-99999.0,'11111222,11111222,99999999' 
TABS,ioos:station:wmo:42043:1,2013-07-01T15:30:00Z,28.9818,-94.9186,2.0,278.7407049,14.87271327,-99999.0,'11111222,11111222,99999999' 
TABS,ioos:station:wmo:42043:1,2013-07-01T16:00:00Z,28.9818,-94.9186,2.0,282.7287864,13.38902909,-99999.0,'11111222,11111222,99999999' 
TABS,ioos:station:wmo:42043:1,2013-07-01T16:30:00Z,28.9818,-94.9186,2.0,276.199541,14.35393326,-99999.0,'11111222,11111222,99999999' 
TABS,ioos:station:wmo:42043:1,2013-07-01T17:00:00Z,28.9818,-94.9186,2.0,267.8697309,16.95171083,-99999.0,'11111222,11111222,99999999' 
TABS,ioos:station:wmo:42043:1,2013-07-01T17:30:00Z,28.9818,-94.9186,2.0,268.3215387,17.75761527,-99999.0,'11111222,11111222,99999999' 
TABS,ioos:station:wmo:42043:1,2013-07-01T18:00:00Z,28.9818,-94.9186,2.0,268.8360282,16.74345245,-99999.0,'11111222,11111222,99999999' 
TABS,ioos:station:wmo:42043:1,2013-07-01T18:30:00Z,28.9818,-94.9186,2.0,269.6001139,20.08048804,-99999.0,'11111222,11111222,99999999' 
TABS,ioos:station:wmo:42043:1,2013-07-01T19:00:00Z,28.9818,-94.9186,2.0,272.1642891,19.33378649,-99999.0,'11111222,11111222,99999999' 
TABS,ioos:station:wmo:42043:1,2013-07-01T19:30:00Z,28.9818,-94.9186,2.0,275.7874259,17.15744153,-99999.0,'11111222,11111222,99999999' 
TABS,ioos:station:wmo:42043:1,2013-07-01T20:00:00Z,28.9818,-94.9186,2.0,279.2718317,19.73785196,-99999.0,'11111222,11111222,99999999' 
TABS,ioos:station:wmo:42043:1,2013-07-01T20:30:00Z,28.9818,-94.9186,2.0,284.0586938,18.89595195,-99999.0,'11111222,11111222,99999999' 
TABS,ioos:station:wmo:42043:1,2013-07-01T21:00:00Z,28.9818,-94.9186,2.0,283.4823512,17.80052246,-99999.0,'11111222,11111222,99999999' 
TABS,ioos:station:wmo:42043:1,2013-07-01T21:30:00Z,28.9818,-94.9186,2.0,287.0819588,15.93283716,-99999.0,'11111222,11111222,99999999' 
TABS,ioos:station:wmo:42043:1,2013-07-01T22:00:00Z,28.9818,-94.9186,2.0,279.8498863,16.5438478,-99999.0,'11111222,11111222,99999999' 
TABS,ioos:station:wmo:42043:1,2013-07-01T22:30:00Z,28.9818,-94.9186,2.0,289.0436703,11.61570058,-99999.0,'11111222,11111222,99999999' 
TABS,ioos:station:wmo:42043:1,2013-07-01T23:00:00Z,28.9818,-94.9186,2.0,288.6923917,11.98199065,-99999.0,'11111222,11111222,99999999' 
TABS,ioos:station:wmo:42043:1,2013-07-01T23:30:00Z,28.9818,-94.9186,2.0,278.3563305,10.04665118,-99999.0,'11111222,11111222,99999999' 
TABS,ioos:station:wmo:42043:1,2013-07-02T00:00:00Z,28.9818,-94.9186,2.0,274.6606623,10.5849941,-99999.0,'11111222,11111222,99999999' 
TABS,ioos:station:wmo:42043:1,2013-07-02T00:30:00Z,28.9818,-94.9186,2.0,264.1415904,7.34837397,-99999.0,'11133222,11111222,99999999' 
TABS,ioos:station:wmo:42043:1,2013-07-02T01:00:00Z,28.9818,-94.9186,2.0,251.5646734,8.791131895,-99999.0,'11133222,11111222,99999999' 
TABS,ioos:station:wmo:42043:1,2013-07-02T01:30:00Z,28.9818,-94.9186,2.0,267.534499,8.137530338,-99999.0,'11133222,11111222,99999999' 
TABS,ioos:station:wmo:42043:1,2013-07-02T02:00:00Z,28.9818,-94.9186,2.0,259.8015021,7.681354047,-99999.0,'11133222,11111222,99999999' 
TABS,ioos:station:wmo:42043:1,2013-07-02T02:30:00Z,28.9818,-94.9186,2.0,255.2341905,8.004323832,-99999.0,'11133222,11111222,99999999' 
TABS,ioos:station:wmo:42043:1,2013-07-02T03:00:00Z,28.9818,-94.9186,2.0,252.0581491,10.64778381,-99999.0,'11111222,11111222,99999999' 
TABS,ioos:station:wmo:42043:1,2013-07-02T03:30:00Z,28.9818,-94.9186,2.0,254.1504617,9.813052532,-99999.0,'11133222,11111222,99999999' 
TABS,ioos:station:wmo:42043:1,2013-07-02T04:00:00Z,28.9818,-94.9186,2.0,261.0552118,10.54827,-99999.0,'11111222,11111222,99999999' 
TABS,ioos:station:wmo:42043:1,2013-07-02T04:30:00Z,28.9818,-94.9186,2.0,253.7555203,14.22800056,-99999.0,'11111222,11111222,99999999' 
TABS,ioos:station:wmo:42043:1,2013-07-02T05:00:00Z,28.9818,-94.9186,2.0,244.9237428,12.90647125,-99999.0,'11111222,11111222,99999999' 
TABS,ioos:station:wmo:42043:1,2013-07-02T05:30:00Z,28.9818,-94.9186,2.0,239.7186504,15.11181326,-99999.0,'11111222,11111222,99999999' 
TABS,ioos:station:wmo:42043:1,2013-07-02T06:00:00Z,28.9818,-94.9186,2.0,245.7099262,14.75626647,-99999.0,'11111222,11111222,99999999' 
TABS,ioos:station:wmo:42043:1,2013-07-02T06:30:00Z,28.9818,-94.9186,2.0,239.7490819,14.05368279,-99999.0,'11111222,11111222,99999999' 
TABS,ioos:station:wmo:42043:1,2013-07-02T07:00:00Z,28.9818,-94.9186,2.0,248.0099469,14.1277776,-99999.0,'11111222,11111222,99999999' 
TABS,ioos:station:wmo:42043:1,2013-07-02T07:30:00Z,28.9818,-94.9186,2.0,248.9956274,12.2756507,-99999.0,'11111222,11111222,99999999' 
TABS,ioos:station:wmo:42043:1,2013-07-02T08:00:00Z,28.9818,-94.9186,2.0,243.4531203,13.8278451,-99999.0,'11111222,11111222,99999999' 
TABS,ioos:station:wmo:42043:1,2013-07-02T08:30:00Z,28.9818,-94.9186,2.0,246.4257353,11.82702414,-99999.0,'11111222,11111222,99999999' 
TABS,ioos:station:wmo:42043:1,2013-07-02T09:00:00Z,28.9818,-94.9186,2.0,242.028969,12.57943162,-99999.0,'11111222,11111222,99999999' 
TABS,ioos:station:wmo:42043:1,2013-07-02T09:30:00Z,28.9818,-94.9186,2.0,256.3575725,12.33807927,-99999.0,'11111222,11111222,99999999' 
TABS,ioos:station:wmo:42043:1,2013-07-02T10:00:00Z,28.9818,-94.9186,2.0,255.6124214,12.27495825,-99999.0,'11111222,11111222,99999999' 
TABS,ioos:station:wmo:42043:1,2013-07-02T10:30:00Z,28.9818,-94.9186,2.0,260.1250267,11.19586084,-99999.0,'11111222,11111222,99999999' 
TABS,ioos:station:wmo:42043:1,2013-07-02T11:00:00Z,28.9818,-94.9186,2.0,272.7656823,11.19303355,-99999.0,'11111222,11111222,99999999' 
TABS,ioos:station:wmo:42043:1,2013-07-02T11:30:00Z,28.9818,-94.9186,2.0,274.8759065,11.06001808,-99999.0,'11111222,11111222,99999999' 
TABS,ioos:station:wmo:42043:1,2013-07-02T12:00:00Z,28.9818,-94.9186,2.0,285.848819,9.740251537,-99999.0,'11133222,11111222,99999999' 
TABS,ioos:station:wmo:42043:1,2013-07-02T12:30:00Z,28.9818,-94.9186,2.0,273.4275923,8.865855853,-99999.0,'11133222,11111222,99999999' 
TABS,ioos:station:wmo:42043:1,2013-07-02T13:00:00Z,28.9818,-94.9186,2.0,269.8024618,8.720051605,-99999.0,'11133222,11111222,99999999' 
TABS,ioos:station:wmo:42043:1,2013-07-02T13:30:00Z,28.9818,-94.9186,2.0,278.8852307,8.481774578,-99999.0,'11133222,11111222,99999999' 
TABS,ioos:station:wmo:42043:1,2013-07-02T14:00:00Z,28.9818,-94.9186,2.0,280.8419183,9.835552857,-99999.0,'11133222,11111222,99999999' 
TABS,ioos:station:wmo:42043:1,2013-07-02T14:30:00Z,28.9818,-94.9186,2.0,268.7084367,8.432140891,-99999.0,'11133222,11111222,99999999' 
TABS,ioos:station:wmo:42043:1,2013-07-02T15:00:00Z,28.9818,-94.9186,2.0,262.7370701,7.752193238,-99999.0,'11133222,11111222,99999999' 
TABS,ioos:station:wmo:42043:1,2013-07-02T15:30:00Z,28.9818,-94.9186,2.0,254.2467947,8.582336512,-99999.0,'11133222,11111222,99999999' 
TABS,ioos:station:wmo:42043:1,2013-07-02T16:00:00Z,28.9818,-94.9186,2.0,252.3319799,8.500964651,-99999.0,'11133222,11111222,99999999' 
TABS,ioos:station:wmo:42043:1,2013-07-02T16:30:00Z,28.9818,-94.9186,2.0,245.5947793,10.91529661,-99999.0,'11111222,11111222,99999999' 
TABS,ioos:station:wmo:42043:1,2013-07-02T17:00:00Z,28.9818,-94.9186,2.0,261.4974513,10.88967401,-99999.0,'11111222,11111222,99999999' 
TABS,ioos:station:wmo:42043:1,2013-07-02T17:30:00Z,28.9818,-94.9186,2.0,256.9801059,13.80487595,-99999.0,'11111222,11111222,99999999' 
TABS,ioos:station:wmo:42043:1,2013-07-02T18:00:00Z,28.9818,-94.9186,2.0,247.8237926,14.49197364,-99999.0,'11111222,11111222,99999999' 
TABS,ioos:station:wmo:42043:1,2013-07-02T18:30:00Z,28.9818,-94.9186,2.0,246.5417883,16.83103087,-99999.0,'11111222,11111222,99999999' 
TABS,ioos:station:wmo:42043:1,2013-07-02T19:00:00Z,28.9818,-94.9186,2.0,252.1587078,17.69073204,-99999.0,'11111222,11111222,99999999' 
TABS,ioos:station:wmo:42043:1,2013-07-02T19:30:00Z,28.9818,-94.9186,2.0,248.4101717,17.06737531,-99999.0,'11111222,11111222,99999999' 
TABS,ioos:station:wmo:42043:1,2013-07-02T20:00:00Z,28.9818,-94.9186,2.0,249.1013396,18.61455613,-99999.0,'11111222,11111222,99999999' 
TABS,ioos:station:wmo:42043:1,2013-07-02T20:30:00Z,28.9818,-94.9186,2.0,251.715006,19.28363555,-99999.0,'11111222,11111222,99999999' 
TABS,ioos:station:wmo:42043:1,2013-07-02T21:00:00Z,28.9818,-94.9186,2.0,252.7592053,18.05104152,-99999.0,'11111222,11111222,99999999' 
TABS,ioos:station:wmo:42043:1,2013-07-02T21:30:00Z,28.9818,-94.9186,2.0,254.3650602,17.21702646,-99999.0,'11111222,11111222,99999999' 
TABS,ioos:station:wmo:42043:1,2013-07-02T22:00:00Z,28.9818,-94.9186,2.0,257.3994487,19.1614822,-99999.0,'11111222,11111222,99999999' 
TABS,ioos:station:wmo:42043:1,2013-07-02T22:30:00Z,28.9818,-94.9186,2.0,268.3044084,19.26843273,-99999.0,'11111222,11111222,99999999' 
TABS,ioos:station:wmo:42043:1,2013-07-02T23:00:00Z,28.9818,-94.9186,2.0,277.9239379,21.1822284,-99999.0,'11111222,11111222,99999999' 
TABS,ioos:station:wmo:42043:1,2013-07-02T23:30:00Z,28.9818,-94.9186,2.0,291.5233886,17.96252209,-99999.0,'11111222,11111222,99999999' 
TABS,ioos:station:wmo:42043:1,2013-07-03T00:00:00Z,28.9818,-94.9186,2.0,293.1377346,17.20377865,-99999.0,'11111222,11111222,99999999' 
TABS,ioos:station:wmo:42043:1,2013-07-03T00:30:00Z,28.9818,-94.9186,2.0,297.1066483,16.57000302,-99999.0,'11111222,11111222,99999999' 
TABS,ioos:station:wmo:42043:1,2013-07-03T01:00:00Z,28.9818,-94.9186,2.0,309.0925505,16.96876248,-99999.0,'11111222,11111222,99999999' 
TABS,ioos:station:wmo:42043:1,2013-07-03T01:30:00Z,28.9818,-94.9186,2.0,316.1049152,16.13917594,-99999.0,'11111222,11111222,99999999' 
TABS,ioos:station:wmo:42043:1,2013-07-03T02:00:00Z,28.9818,-94.9186,2.0,322.1485874,17.27453617,-99999.0,'11111222,11111222,99999999' 
TABS,ioos:station:wmo:42043:1,2013-07-03T02:30:00Z,28.9818,-94.9186,2.0,331.9685125,15.72470985,-99999.0,'11111222,11111222,99999999' 
TABS,ioos:station:wmo:42043:1,2013-07-03T03:00:00Z,28.9818,-94.9186,2.0,338.1610372,16.88156687,-99999.0,'11111222,11111222,99999999' 
TABS,ioos:station:wmo:42043:1,2013-07-03T03:30:00Z,28.9818,-94.9186,2.0,340.8494176,16.7044545,-99999.0,'11111222,11111222,99999999' 
TABS,ioos:station:wmo:42043:1,2013-07-03T04:00:00Z,28.9818,-94.9186,2.0,344.1128189,16.29234483,-99999.0,'11111222,11111222,99999999' 
TABS,ioos:station:wmo:42043:1,2013-07-03T04:30:00Z,28.9818,-94.9186,2.0,348.4133823,16.23076092,-99999.0,'11111222,11111222,99999999' 
TABS,ioos:station:wmo:42043:1,2013-07-03T05:00:00Z,28.9818,-94.9186,2.0,347.8944392,10.87176619,-99999.0,'11111222,11111222,99999999' 
TABS,ioos:station:wmo:42043:1,2013-07-03T05:30:00Z,28.9818,-94.9186,2.0,341.1893956,11.56786065,-99999.0,'11111222,11111222,99999999' 
TABS,ioos:station:wmo:42043:1,2013-07-03T06:00:00Z,28.9818,-94.9186,2.0,337.783289,12.03337442,-99999.0,'11111222,11111222,99999999' 
TABS,ioos:station:wmo:42043:1,2013-07-03T06:30:00Z,28.9818,-94.9186,2.0,334.23791,10.21536098,-99999.0,'11111222,11111222,99999999' 
TABS,ioos:station:wmo:42043:1,2013-07-03T07:00:00Z,28.9818,-94.9186,2.0,321.1140714,8.29913851,-99999.0,'11133222,11111222,99999999' 
TABS,ioos:station:wmo:42043:1,2013-07-03T07:30:00Z,28.9818,-94.9186,2.0,323.998804,4.882560804,-99999.0,'11133222,11111222,99999999' 
TABS,ioos:station:wmo:42043:1,2013-07-03T08:00:00Z,28.9818,-94.9186,2.0,301.3855365,4.896417057,-99999.0,'11133222,11111222,99999999' 
TABS,ioos:station:wmo:42043:1,2013-07-03T08:30:00Z,28.9818,-94.9186,2.0,292.0019858,5.845724934,-99999.0,'11133222,11111222,99999999' 
TABS,ioos:station:wmo:42043:1,2013-07-03T09:00:00Z,28.9818,-94.9186,2.0,271.1329715,6.071186046,-99999.0,'11133222,11111222,99999999' 
TABS,ioos:station:wmo:42043:1,2013-07-03T09:30:00Z,28.9818,-94.9186,2.0,252.1059117,7.030056899,-99999.0,'11133222,11111222,99999999' 
TABS,ioos:station:wmo:42043:1,2013-07-03T10:00:00Z,28.9818,-94.9186,2.0,253.559238,5.724028302,-99999.0,'11133222,11111222,99999999' 
TABS,ioos:station:wmo:42043:1,2013-07-03T10:30:00Z,28.9818,-94.9186,2.0,254.0281296,6.032876594,-99999.0,'11133222,11111222,99999999' 
TABS,ioos:station:wmo:42043:1,2013-07-03T11:00:00Z,28.9818,-94.9186,2.0,254.6946304,5.038700229,-99999.0,'11133222,11111222,99999999' 
TABS,ioos:station:wmo:42043:1,2013-07-03T11:30:00Z,28.9818,-94.9186,2.0,232.8260833,5.660079505,-99999.0,'11133222,11111222,99999999' 
TABS,ioos:station:wmo:42043:1,2013-07-03T12:00:00Z,28.9818,-94.9186,2.0,219.4170916,6.614537021,-99999.0,'11133222,11111222,99999999' 
TABS,ioos:station:wmo:42043:1,2013-07-03T12:30:00Z,28.9818,-94.9186,2.0,228.258551,7.960753733,-99999.0,'11133222,11111222,99999999' 
TABS,ioos:station:wmo:42043:1,2013-07-03T13:00:00Z,28.9818,-94.9186,2.0,228.2811708,8.400059524,-99999.0,'11133222,11111222,99999999' 
TABS,ioos:station:wmo:42043:1,2013-07-03T13:30:00Z,28.9818,-94.9186,2.0,231.8424417,9.080291846,-99999.0,'11133222,11111222,99999999' 
TABS,ioos:station:wmo:42043:1,2013-07-03T14:00:00Z,28.9818,-94.9186,2.0,229.0852915,11.51267128,-99999.0,'11111222,11111222,99999999' 
TABS,ioos:station:wmo:42043:1,2013-07-03T14:30:00Z,28.9818,-94.9186,2.0,248.9212838,13.0962781,-99999.0,'11111222,11111222,99999999' 
TABS,ioos:station:wmo:42043:1,2013-07-03T15:00:00Z,28.9818,-94.9186,2.0,268.0063356,12.93782826,-99999.0,'11111222,11111222,99999999' 
TABS,ioos:station:wmo:42043:1,2013-07-03T15:30:00Z,28.9818,-94.9186,2.0,252.3188874,12.9727869,-99999.0,'11111222,11111222,99999999' 
TABS,ioos:station:wmo:42043:1,2013-07-03T16:00:00Z,28.9818,-94.9186,2.0,253.6935558,15.49320496,-99999.0,'11111222,11111222,99999999' 
TABS,ioos:station:wmo:42043:1,2013-07-03T16:30:00Z,28.9818,-94.9186,2.0,251.0586406,16.11243309,-99999.0,'11111222,11111222,99999999' 
TABS,ioos:station:wmo:42043:1,2013-07-03T17:00:00Z,28.9818,-94.9186,2.0,249.9144743,18.2286039,-99999.0,'11111222,11111222,99999999' 
TABS,ioos:station:wmo:42043:1,2013-07-03T17:30:00Z,28.9818,-94.9186,2.0,256.3153461,19.74034701,-99999.0,'11111222,11111222,99999999' 
TABS,ioos:station:wmo:42043:1,2013-07-03T18:00:00Z,28.9818,-94.9186,2.0,255.2547347,22.15974955,-99999.0,'11111222,11111222,99999999' 
TABS,ioos:station:wmo:42043:1,2013-07-03T18:30:00Z,28.9818,-94.9186,2.0,258.9967108,24.15401002,-99999.0,'11111222,11111222,99999999' 
TABS,ioos:station:wmo:42043:1,2013-07-03T19:00:00Z,28.9818,-94.9186,2.0,262.3073728,24.05647522,-99999.0,'11111222,11111222,99999999' 
TABS,ioos:station:wmo:42043:1,2013-07-03T19:30:00Z,28.9818,-94.9186,2.0,261.4821706,27.614565,-99999.0,'11111222,11111222,99999999' 
TABS,ioos:station:wmo:42043:1,2013-07-03T20:00:00Z,28.9818,-94.9186,2.0,267.2948718,27.76092578,-99999.0,'11111222,11111222,99999999' 
TABS,ioos:station:wmo:42043:1,2013-07-03T20:30:00Z,28.9818,-94.9186,2.0,268.9783745,28.05445597,-99999.0,'11111222,11111222,99999999' 
TABS,ioos:station:wmo:42043:1,2013-07-03T21:00:00Z,28.9818,-94.9186,2.0,278.6370017,27.03657708,-99999.0,'11111222,11111222,99999999' 
TABS,ioos:station:wmo:42043:1,2013-07-03T21:30:00Z,28.9818,-94.9186,2.0,282.7713767,28.99735333,-99999.0,'11111222,11111222,99999999' 
TABS,ioos:station:wmo:42043:1,2013-07-03T22:00:00Z,28.9818,-94.9186,2.0,288.5711747,28.00837196,-99999.0,'11111222,11111222,99999999' 
TABS,ioos:station:wmo:42043:1,2013-07-03T22:30:00Z,28.9818,-94.9186,2.0,295.0378881,25.16470743,-99999.0,'11111222,11111222,99999999' 
TABS,ioos:station:wmo:42043:1,2013-07-03T23:00:00Z,28.9818,-94.9186,2.0,297.4007541,23.61986029,-99999.0,'11111222,11111222,99999999' 
TABS,ioos:station:wmo:42043:1,2013-07-03T23:30:00Z,28.9818,-94.9186,2.0,302.0418747,23.52347763,-99999.0,'11111222,11111222,99999999' 
TABS,ioos:station:wmo:42043:1,2013-07-04T00:00:00Z,28.9818,-94.9186,2.0,309.8058989,19.44752169,-99999.0,'11111222,11111222,99999999' 
TABS,ioos:station:wmo:42043:1,2013-07-04T00:30:00Z,28.9818,-94.9186,2.0,317.4740143,19.98732098,-99999.0,'11111222,11111222,99999999' 
TABS,ioos:station:wmo:42043:1,2013-07-04T01:00:00Z,28.9818,-94.9186,2.0,321.3615448,21.25212695,-99999.0,'11111222,11111222,99999999' 
TABS,ioos:station:wmo:42043:1,2013-07-04T01:30:00Z,28.9818,-94.9186,2.0,325.5600761,22.03180655,-99999.0,'11111222,11111222,99999999' 
TABS,ioos:station:wmo:42043:1,2013-07-04T02:00:00Z,28.9818,-94.9186,2.0,331.0457937,18.34276152,-99999.0,'11111222,11111222,99999999' 
TABS,ioos:station:wmo:42043:1,2013-07-04T02:30:00Z,28.9818,-94.9186,2.0,334.9314605,18.66858859,-99999.0,'11111222,11111222,99999999' 
TABS,ioos:station:wmo:42043:1,2013-07-04T03:00:00Z,28.9818,-94.9186,2.0,341.7615573,17.54125708,-99999.0,'11111222,11111222,99999999' 
TABS,ioos:station:wmo:42043:1,2013-07-04T03:30:00Z,28.9818,-94.9186,2.0,344.940972,18.47445804,-99999.0,'11111222,11111222,99999999' 
TABS,ioos:station:wmo:42043:1,2013-07-04T04:00:00Z,28.9818,-94.9186,2.0,354.6477238,16.08011505,-99999.0,'11111222,11111222,99999999' 
TABS,ioos:station:wmo:42043:1,2013-07-04T04:30:00Z,28.9818,-94.9186,2.0,2.95791788,15.31039516,-99999.0,'11111222,11111222,99999999' 
TABS,ioos:station:wmo:42043:1,2013-07-04T05:00:00Z,28.9818,-94.9186,2.0,11.89266525,15.43121512,-99999.0,'11111222,11111222,99999999' 
TABS,ioos:station:wmo:42043:1,2013-07-04T05:30:00Z,28.9818,-94.9186,2.0,23.58770961,14.11970609,-99999.0,'11111222,11111222,99999999' 
TABS,ioos:station:wmo:42043:1,2013-07-04T06:00:00Z,28.9818,-94.9186,2.0,16.28093717,13.37640086,-99999.0,'11111222,11111222,99999999' 
TABS,ioos:station:wmo:42043:1,2013-07-04T06:30:00Z,28.9818,-94.9186,2.0,20.9807103,10.11029179,-99999.0,'11111222,11111222,99999999' 
TABS,ioos:station:wmo:42043:1,2013-07-04T07:00:00Z,28.9818,-94.9186,2.0,29.13603235,10.26941576,-99999.0,'11111222,11111222,99999999' 
TABS,ioos:station:wmo:42043:1,2013-07-04T07:30:00Z,28.9818,-94.9186,2.0,36.47947443,7.922184042,-99999.0,'11133222,11111222,99999999' 
TABS,ioos:station:wmo:42043:1,2013-07-04T08:00:00Z,28.9818,-94.9186,2.0,46.3621227,5.057242332,-99999.0,'11133222,11111222,99999999' 
TABS,ioos:station:wmo:42043:1,2013-07-04T08:30:00Z,28.9818,-94.9186,2.0,86.86034719,2.373562723,-99999.0,'11133222,11111222,99999999' 
TABS,ioos:station:wmo:42043:1,2013-07-04T09:00:00Z,28.9818,-94.9186,2.0,103.626963,4.41426098,-99999.0,'11133222,11111222,99999999' 
TABS,ioos:station:wmo:42043:1,2013-07-04T09:30:00Z,28.9818,-94.9186,2.0,50.59999532,28.04333967,-99999.0,'11111222,11111222,99999999' 
TABS,ioos:station:wmo:42043:1,2013-07-04T10:00:00Z,28.9818,-94.9186,2.0,61.81416272,24.66475421,-99999.0,'11111222,11111222,99999999' 
TABS,ioos:station:wmo:42043:1,2013-07-04T10:30:00Z,28.9818,-94.9186,2.0,71.70748764,20.35880645,-99999.0,'11111222,11111222,99999999' 
TABS,ioos:station:wmo:42043:1,2013-07-04T11:00:00Z,28.9818,-94.9186,2.0,83.29589739,17.56007118,-99999.0,'11111222,11111222,99999999' 
TABS,ioos:station:wmo:42043:1,2013-07-04T11:30:00Z,28.9818,-94.9186,2.0,89.92298977,14.88001344,-99999.0,'11111222,11111222,99999999' 
TABS,ioos:station:wmo:42043:1,2013-07-04T12:00:00Z,28.9818,-94.9186,2.0,112.0505034,13.23834582,-99999.0,'11111222,11111222,99999999' 
TABS,ioos:station:wmo:42043:1,2013-07-04T12:30:00Z,28.9818,-94.9186,2.0,111.9095576,12.78328987,-99999.0,'11111222,11111222,99999999' 
TABS,ioos:station:wmo:42043:1,2013-07-04T13:00:00Z,28.9818,-94.9186,2.0,118.6666385,12.19477347,-99999.0,'11111222,11111222,99999999' 
TABS,ioos:station:wmo:42043:1,2013-07-04T13:30:00Z,28.9818,-94.9186,2.0,122.0988522,12.98499134,-99999.0,'11111222,11111222,99999999' 
TABS,ioos:station:wmo:42043:1,2013-07-04T14:00:00Z,28.9818,-94.9186,2.0,122.8336954,11.87745764,-99999.0,'11111222,11111222,99999999' 
TABS,ioos:station:wmo:42043:1,2013-07-04T14:30:00Z,28.9818,-94.9186,2.0,136.1134928,13.09809146,-99999.0,'11111222,11111222,99999999' 
TABS,ioos:station:wmo:42043:1,2013-07-04T15:00:00Z,28.9818,-94.9186,2.0,172.0352377,11.25860116,-99999.0,'11111222,11111222,99999999' 
TABS,ioos:station:wmo:42043:1,2013-07-04T15:30:00Z,28.9818,-94.9186,2.0,200.0325055,12.81536968,-99999.0,'11111222,11111222,99999999' 
TABS,ioos:station:wmo:42043:1,2013-07-04T16:00:00Z,28.9818,-94.9186,2.0,211.4081557,14.14219926,-99999.0,'11111222,11111222,99999999' 